SCP
0 0 0 0 0 0 0 0 0 0 0 0 0 0 0 0 0 0 0 0 0 0 0 0 0 0 0 0 -0 -0 -0 0 0 0 0 0 0 0 0 0 0 0 0 0 0 0 0
0 0 0 0 0 0 0 0 0 0 0 0 0 0 0 0 0 0 0 0 0 0 0 0 0 0 0 0 0 0 -0 0 0 0 0 0 0 0 0 -0 0 0 0 0 0 0 0
0 0 0 0 0 0 0 0 0 0 0 0 0 0 0 0 0 0 0 0 0 0 0 0 0 0 0 -0 0 0 -0 -0 0 0 0 0 0 0 0 0 0 0 0 0 0 0 0
0 0 0 0 -0 -0 0 0 0 0 0 0 0 0 0 0 0 0 0 0 0 0 0 0 0 0 0 0 0 0 0 0 0 -0 0 -0 0 0 0 0 0 0 0 0 0 0 0
0 0 0 0 0 0 0 0 0 0 0 0 0 0 0 0 0 0 0 0 0 0 0 0 0 0 0 0 0 0 0 0 0 0 0 0 0 0 0 0 0 0 -0 0 0 0 0
0 0 0 0 0 0 0 0 0 0 0 0 0 0 0 0 0 0 0 0 0 0 0 0 0 0 0 0 0 0 0 0 0 0 0 0 0 0 0 0 0 0 0 0 0 0 0
0 0 0 0 0 0 0 0 0 0 0 0 0 0 0 0 0 0 0 0 0 0 0 0 0 0 0 0 0 0 0 0 0 0 0 0 0 0 0 0 0 0 0 0 0 0 0
0 0 0 0 0 0 0 0 0 0 0 0 0 0 0 0 0 0 0 0 0 0 0 0 0 0 -0 0 0 0 0 0 0 0 0 0 0 0 0 0 0 0 0 0 0 0 0
0 0 0 0 0 0 0 0 0 0 0 0 0 0 0 0 0 0 0 0 0 0 0 -0 0 0 0 0 0 0 0 0 0 0 0 0 0 0 0 0 0 0 0 0 0 0 0
0 0 0 0 0 0 0 0 0 0 0 0 0 0 0 0 0 0 0 0 0 0 0 0 0 0 0 0 0 -0 0 0 0 0 0 0 0 0 0 0 0 0 0 0 0 0 0
0 0 0 0 0 0 0 0 0 0 0 0 0 0 0 0 0 0 0 0 0 0 0 0 0 0 0 0 0 0 0 0 0 0 0 0 0 0 0 0 0 0 0 0 0 0 0
-0 0 0 0 0 0 0 0 0 0 0 0 0 0 0 0 0 0 0 0 0 0 0 0 0 0 0 0 0 0 0 0 0 0 0 0 0 0 0 0 0 0 0 0 0 0 0
-0 -0 -0 -0 -0 -0 -0 0 0 0 0 0 0 0 0 0 0 0 0 0 0 0 0 0 0 0 0 0 0 0 0 0 0 0 0 0 0 0 0 0 0 0 0 0 0 0 0
-0 -0 -0 -0 -0 -0 -0 -0 -0 0 0 0 0 0 0 0 0 0 0 0 0 0 0 0 0 0 0 0 0 0 0 0 0 0 0 0 0 0 0 0 0 0 0 0 0 0 0
0 -0 0 -0 0 -0 -0 -0 -0 -0 0 0 0 0 0 0 0 0 0 0 0 0 0 0 0 0 0 0 0 0 0 0 0 0 0 0 0 0 0 0 0 0 0 0 0 0 0
0 0 0 0 0 0 0 0 0 0 0 0 0 0 0 0 0 0 0 0 0 0 0 0 0 0 0 0 0 0 0 0 0 0 0 0 0 0 0 0 0 0 0 0 0 0 0
0 0 0 0 0 0 0 0 0 0 0 0 0 0 0 0 0 0 0 0 0 0 0 0 0 0 0 0 0 0 0 0 0 0 0 0 0 0 0 0 0 0 0 0 0 0 0
0 0 0 0 0 0 0 0 0 0 0 0 0 0 0 0 0 0 0 0 0 0 0 0 0 0 0 0 0 0 0 0 0 0 0 0 0 0 0 0 0 0 0 0 0 0 0
0 -0 0 0 0 0 0 0 0 0 0 0 0 0 0 0 0 0 0 0 0 0 0 0 0 0 0 0 0 0 0 0 0 0 0 0 0 0 0 0 0 0 0 0 0 0 0
0 -0 0 0 0 0 0 0 0 0 0 0 0 0 0 0 0 0 0 0 0 0 0 0 0 0 0 0 0 0 0 0 0 0 0 0 0 0 0 0 0 0 0 0 0 0 0
-0 -0 0 0 0 0 0 0 0 -0 0 0 0 0 0 0 0 0 0 0 0 0 0 0 0 0 0 0 0 0 0 0 0 0 0 0 0 0 0 0 0 0 0 0 0 0 0
-0 0 0 0 0 0 0 0 0 -0 0 0 0 0 0 0 0 0 0 0 0 0 0 0 0 0 0 0 0 0 0 0 0 0 0 0 0 0 0 0 0 0 0 0 0 0 0
-0 0 0 0 0 0 0 0 -0 -0 -0 0 0 0 0 -0 0 0 0 0 0 0 0 0 0 0 0 0 0 0 0 0 0 0 0 0 0 0 0 0 0 -0 0 0 0 0 0
0 -0 0 0 0 0 0 -0 -0 -0 -0 0 0 0 0 -0 -0 0 0 0 0 0 0 0 0 0 0 0 0 0 0 0 0 0 0 0 0 0 0 0 0 0 0 0 0 0 0
0 0 0 0 0 0 0 -0 0 -0 0 0 0 0 0 -0 0 0 0 0 0 0 0 0 0 0 0 0 0 0 0 0 0 0 0 0 0 0 0 0 0 0 0 0 0 0 0
0 0 0 0 0 0 0 0 0 -0 -0 0 0 0 -0 -0 -0 0 0 0 0 0 0 0 0 0 0 0 0 0 0 0 0 0 0 0 0 0 0 0 0 0 0 0 0 0 0
0 0 -0 0 0 0 0 0 -0 -0 -0 0 0 0 -0 -0 0 0 0 0 0 0 0 0 0 0 0 0 0 0 0 0 0 0 0 0 0 0 0 0 0 0 0 0 0 0 0
0 0 0 0 0 -0 -0 0 0 0 -0 0 0 0 0 0 -0 0 0 0 0 0 0 0 0 0 0 0 0 0 0 0 0 0 0 0 0 0 0 0 0 0 0 0 0 0 0
0 0 0 -0 0 0 0 0 0 -0 -0 0 0 0 0 0 0 0 0 0 0 0 0 0 0 0 0 0 0 0 0 0 0 0 0 0 0 0 0 0 0 0 0 0 0 0 0
Wind_Speed_500mb
38 39 40 41 42 45 49 50 51 50 48 47 45 43 42 40 40 39 38 37 37 35 33 33 34 30 29 24 56 20 12 12 18 48 51 47 39 18 9 11 9 11 10 7 14 23 27
44 45 46 47 46 45 46 47 49 50 50 49 49 49 47 45 42 43 42 40 39 37 35 35 34 30 29 23 43 40 60 54 30 41 53 51 45 48 15 13 12 14 13 2 4 8 13
50 51 51 51 51 52 53 52 49 49 49 50 49 49 49 48 47 46 45 44 41 40 38 37 35 34 39 66 27 17 20 43 38 27 55 55 51 24 14 11 12 2 4 10 3 9 6
47 51 53 54 56 56 56 55 54 53 52 50 49 49 49 50 50 50 47 43 41 41 41 39 37 34 32 44 32 50 50 24 25 34 42 49 40 39 23 19 6 7 9 5 8 10 7
55 50 50 53 55 55 56 55 53 53 55 55 53 48 48 48 50 51 49 42 40 42 40 36 30 23 26 26 38 42 44 47 22 25 26 27 13 17 8 5 6 13 6 8 11 19 5
51 61 65 63 59 56 58 57 53 50 51 51 51 50 48 46 46 47 45 39 33 34 26 15 16 9 37 22 21 33 34 39 29 23 21 17 11 6 5 5 11 8 6 6 7 5 7
52 57 56 56 62 65 59 57 57 57 52 49 48 48 46 44 40 38 35 20 12 7 18 22 13 18 8 4 13 18 28 38 27 21 14 13 8 16 18 14 10 8 5 9 7 10 9
55 58 59 60 63 58 65 66 60 58 58 55 49 42 42 44 39 30 24 7 9 7 24 34 59 62 59 51 22 22 30 33 20 12 14 7 24 14 14 8 8 6 6 10 11 6 11
54 58 59 59 59 62 62 62 70 64 59 58 51 45 44 43 39 29 18 13 12 20 12 21 52 64 79 49 36 52 25 29 11 14 14 17 7 15 14 10 8 10 7 9 14 4 5
62 58 55 57 59 58 58 62 63 64 67 61 53 48 43 40 24 22 15 13 14 11 7 14 17 28 52 41 17 61 45 33 5 27 17 14 12 16 10 9 15 8 15 11 8 3 9
64 64 68 66 59 59 58 56 60 59 55 64 56 46 42 34 18 8 8 17 12 11 10 13 15 10 38 46 31 28 57 36 19 14 14 20 16 12 11 19 15 19 7 10 7 8 3
69 69 66 63 69 70 65 62 54 53 57 53 55 46 43 41 32 31 21 3 15 7 21 11 13 17 14 23 29 24 40 35 28 13 6 20 18 19 24 17 18 6 6 12 8 7 3
70 72 72 71 66 67 72 65 63 57 55 54 54 50 49 44 26 18 20 10 5 14 4 13 14 13 23 13 17 20 27 27 23 16 23 8 10 8 12 10 6 10 12 7 8 5 11
73 76 75 73 73 67 64 72 64 58 54 52 54 52 52 50 33 26 12 5 18 18 23 7 10 12 19 16 21 18 16 29 27 14 11 20 17 20 7 16 19 13 17 11 11 5 11
76 81 80 81 78 72 63 63 69 59 53 52 48 51 56 55 39 24 16 15 25 14 26 8 6 9 11 16 15 21 37 31 26 26 34 17 16 6 14 10 21 11 9 12 9 1 4
83 83 84 80 77 79 66 60 59 59 49 47 51 51 55 52 43 27 5 49 15 13 10 48 17 12 20 14 18 33 29 33 26 18 11 13 5 10 14 10 1 18 13 4 4 4 8
86 85 75 74 76 73 71 60 55 55 48 41 41 22 28 60 50 32 16 28 43 25 9 30 45 13 14 16 19 17 14 19 42 19 24 12 12 8 13 14 18 6 6 9 9 9 10
88 91 82 77 71 60 55 57 51 52 43 40 42 9 26 70 16 14 31 16 16 46 18 5 5 16 15 14 19 23 25 25 38 29 27 16 13 13 16 6 9 14 20 18 10 9 6
87 88 84 73 60 51 48 53 42 44 38 46 17 14 34 80 21 25 29 22 24 19 11 5 5 7 9 13 8 10 11 14 29 34 25 17 7 7 9 6 2 9 9 10 10 8 14
91 96 84 70 57 45 28 36 36 38 44 52 13 9 17 43 31 28 32 35 14 47 23 2 5 9 3 9 3 8 4 7 5 12 41 40 13 21 30 10 11 9 9 12 14 9 11
99 96 76 60 54 33 22 27 33 37 42 50 17 5 4 9 18 22 12 6 41 15 22 5 5 7 6 9 8 8 4 4 9 7 9 14 16 12 10 19 21 26 16 23 19 17 16
91 83 66 66 46 22 18 23 30 31 36 49 14 5 4 6 36 29 15 7 31 41 5 22 8 5 10 7 7 7 5 5 5 14 8 1 8 16 15 18 25 22 32 30 33 6 4
80 72 67 58 41 21 14 21 32 28 42 18 18 21 12 1 8 18 23 26 9 4 3 11 9 4 9 3 13 19 24 19 7 2 3 1 9 8 10 11 14 33 31 26 15 10 18
82 67 60 48 41 33 23 18 30 34 42 37 7 5 4 6 6 10 14 32 26 9 3 6 12 10 3 18 13 9 9 13 15 9 16 3 8 5 7 11 16 9 16 33 38 22 14
68 68 58 41 40 30 30 11 16 26 34 37 31 11 3 5 11 12 5 26 37 39 14 5 14 4 9 11 5 2 5 1 14 13 12 16 10 5 10 7 7 2 10 17 17 22 28
65 74 53 40 31 26 14 5 3 15 20 28 22 18 7 4 7 15 14 6 6 7 5 8 23 18 9 2 3 12 11 11 11 10 11 11 6 9 6 13 20 13 13 13 10 13 20
59 66 67 35 30 29 22 3 7 11 23 22 21 23 6 3 12 15 6 1 8 7 6 3 5 5 26 5 4 6 14 5 13 23 13 9 5 24 4 7 11 11 17 30 16 15 24
60 62 59 50 37 21 15 6 3 9 17 34 22 17 15 6 11 11 8 2 5 6 6 5 3 4 0 10 8 8 8 19 12 13 18 15 14 10 4 6 16 15 14 23 16 20 24
58 56 58 50 48 18 11 10 4 9 21 21 9 23 21 14 8 14 18 15 12 5 5 4 2 3 5 6 6 6 6 3 22 26 5 21 14 14 18 12 8 55 39 59 41 32 30
Wind_Direction_500mb
288 287 286 283 280 280 280 281 283 283 284 285 286 286 287 288 287 287 286 284 286 290 294 295 293 294 288 264 246 236 225 358 219 208 221 228 230 226 229 234 167 191 261 300 247 193 204
292 292 289 287 286 284 280 279 278 277 279 280 283 286 289 289 287 285 285 285 287 288 287 287 287 287 272 256 271 253 253 261 273 215 220 225 232 243 262 232 174 227 219 64 159 194 206
302 296 294 293 287 281 280 281 283 283 283 281 279 279 281 283 285 285 285 286 290 289 285 282 281 279 261 252 252 276 276 253 254 241 221 232 233 191 228 280 278 81 120 38 251 166 232
297 299 299 297 293 289 287 284 281 282 281 280 280 282 280 279 279 281 282 284 289 287 283 281 278 271 250 274 259 251 249 225 234 232 230 238 242 242 260 272 56 96 53 101 278 157 245
284 290 292 293 292 293 295 291 286 283 286 286 285 285 282 280 281 281 282 285 291 290 286 279 265 239 263 258 247 248 243 241 227 227 225 224 217 234 260 201 31 11 225 208 310 204 131
306 287 286 285 285 287 289 292 293 286 282 283 284 283 284 284 283 285 285 288 292 290 279 239 214 228 250 244 267 260 217 226 229 237 206 207 184 176 73 105 214 236 236 231 243 243 185
308 303 300 298 285 278 283 286 287 292 292 289 288 287 286 286 286 288 293 305 283 224 233 210 215 218 210 108 230 241 224 194 173 169 156 168 143 206 203 203 190 199 203 249 268 243 182
312 306 303 298 295 292 279 277 281 280 286 291 300 312 296 291 290 294 296 309 85 336 294 255 247 252 245 262 301 259 210 166 169 165 114 84 221 187 201 175 181 166 230 268 275 278 162
308 309 312 306 299 293 288 287 276 278 278 280 286 294 303 294 291 290 273 235 236 325 266 263 242 240 240 244 238 253 212 186 140 152 169 187 184 166 171 200 175 203 175 233 241 315 240
297 295 297 299 302 299 292 285 284 280 272 276 280 286 296 303 288 269 241 207 224 290 293 270 205 245 210 213 235 242 230 196 149 189 170 209 197 174 169 196 168 253 217 230 268 39 272
322 314 298 290 290 290 291 290 288 281 280 265 271 274 286 299 253 257 194 194 175 160 289 247 200 222 200 176 159 212 215 207 166 177 142 213 158 177 173 213 165 232 141 196 228 209 108
325 319 316 308 288 287 289 284 286 278 276 275 263 265 269 277 275 250 242 170 155 74 243 269 192 177 120 198 186 167 176 197 208 162 245 203 207 167 198 214 175 170 107 49 56 96 57
332 329 323 315 303 287 276 281 283 278 274 270 260 257 258 265 268 241 231 191 126 206 215 217 202 162 178 163 197 165 171 181 182 162 204 170 187 195 151 151 88 94 71 339 338 8 225
326 326 320 314 311 298 284 269 276 276 273 268 262 253 247 253 258 234 196 99 218 216 203 292 165 148 181 153 208 187 156 188 211 160 163 184 226 170 178 169 183 180 155 157 230 228 260
327 320 313 310 302 299 290 276 266 272 270 266 258 252 245 236 241 222 184 198 223 175 196 227 118 141 200 192 158 179 214 205 187 185 203 174 227 136 165 155 147 178 153 197 136 161 60
331 326 317 310 301 292 283 279 265 261 267 258 252 253 240 225 218 192 143 224 222 199 152 202 197 169 187 185 174 190 181 210 206 172 141 196 175 206 198 103 30 168 161 111 17 197 231
336 329 325 317 308 290 274 272 260 252 256 251 237 238 239 223 193 174 211 226 221 277 296 185 219 193 214 178 180 193 225 218 191 171 174 135 136 268 106 177 167 124 163 58 124 149 187
341 341 327 323 316 299 268 261 253 244 244 243 233 218 206 197 183 196 228 212 296 221 255 272 202 198 194 184 183 199 205 198 185 162 172 184 152 193 200 195 174 206 187 168 161 231 213
339 335 334 326 316 306 271 254 245 237 229 232 227 211 200 193 200 214 230 243 263 253 271 297 270 210 191 192 188 174 169 216 174 176 155 169 196 158 324 6 313 172 179 150 120 95 190
339 337 332 328 325 313 271 243 236 232 225 220 177 189 159 219 214 211 219 234 261 241 276 66 316 306 134 160 230 148 142 71 108 157 181 163 159 191 221 203 160 186 181 184 155 137 184
345 341 336 332 327 307 277 244 228 222 225 213 206 242 206 176 206 215 179 249 218 250 225 143 235 261 189 161 98 124 200 13 99 234 118 144 205 182 192 196 191 211 193 181 190 191 169
350 354 351 344 338 310 268 240 224 229 221 209 185 158 190 279 220 218 224 207 237 218 276 222 251 167 26 56 53 104 61 82 89 19 99 33 216 176 214 200 193 214 216 194 207 124 94
352 351 353 353 358 339 310 251 223 223 206 192 226 236 325 106 241 207 212 214 238 226 357 181 121 6 59 218 286 279 264 267 247 44 0 317 138 106 220 185 132 244 208 190 198 187 161
357 350 355 353 353 353 312 266 222 218 214 209 120 128 187 268 214 226 216 202 234 173 229 42 176 141 351 329 315 290 280 253 278 246 183 205 112 101 156 114 207 270 210 185 198 200 192
354 355 356 351 349 360 12 44 182 201 211 219 230 222 88 284 278 200 274 201 205 224 215 224 280 321 338 327 43 345 24 203 255 260 219 181 134 149 148 209 292 232 148 144 158 226 198
356 1 355 360 356 356 1 33 222 210 209 216 228 243 239 244 264 305 151 145 138 145 132 212 246 242 274 199 131 188 193 184 172 199 57 137 190 156 168 176 217 201 202 150 79 249 199
352 359 4 354 345 346 1 272 278 224 201 209 214 209 261 252 297 11 61 139 160 127 151 235 292 194 203 182 127 186 221 208 201 171 170 144 115 206 166 217 275 249 146 138 147 232 185
359 2 6 6 354 348 352 348 236 215 205 201 225 228 230 283 266 300 276 236 117 103 138 179 46 263 90 179 178 223 218 211 260 215 173 161 150 186 117 170 240 168 128 158 199 221 219
359 2 8 5 9 3 18 43 7 272 189 200 206 208 234 269 292 249 240 236 250 197 207 207 212 220 229 177 200 185 290 285 201 236 228 193 183 185 189 203 223 171 173 198 187 198 199
Wind_Speed_850mb
38 39 40 41 42 45 49 50 51 50 48 47 45 43 42 40 40 39 38 37 37 35 33 33 34 30 29 24 56 20 12 12 18 48 51 47 39 18 9 11 9 11 10 7 14 23 27
44 45 46 47 46 45 46 47 49 50 50 49 49 49 47 45 42 43 42 40 39 37 35 35 34 30 29 23 43 40 60 54 30 41 53 51 45 48 15 13 12 14 13 2 4 8 13
50 51 51 51 51 52 53 52 49 49 49 50 49 49 49 48 47 46 45 44 41 40 38 37 35 34 39 66 27 17 20 43 38 27 55 55 51 24 14 11 12 2 4 10 3 9 6
47 51 53 54 56 56 56 55 54 53 52 50 49 49 49 50 50 50 47 43 41 41 41 39 37 34 32 44 32 50 50 24 25 34 42 49 40 39 23 19 6 7 9 5 8 10 7
55 50 50 53 55 55 56 55 53 53 55 55 53 48 48 48 50 51 49 42 40 42 40 36 30 23 26 26 38 42 44 47 22 25 26 27 13 17 8 5 6 13 6 8 11 19 5
51 61 65 63 59 56 58 57 53 50 51 51 51 50 48 46 46 47 45 39 33 34 26 15 16 9 37 22 21 33 34 39 29 23 21 17 11 6 5 5 11 8 6 6 7 5 7
52 57 56 56 62 65 59 57 57 57 52 49 48 48 46 44 40 38 35 20 12 7 18 22 13 18 8 4 13 18 28 38 27 21 14 13 8 16 18 14 10 8 5 9 7 10 9
55 58 59 60 63 58 65 66 60 58 58 55 49 42 42 44 39 30 24 7 9 7 24 34 59 62 59 51 22 22 30 33 20 12 14 7 24 14 14 8 8 6 6 10 11 6 11
54 58 59 59 59 62 62 62 70 64 59 58 51 45 44 43 39 29 18 13 12 20 12 21 52 64 79 49 36 52 25 29 11 14 14 17 7 15 14 10 8 10 7 9 14 4 5
62 58 55 57 59 58 58 62 63 64 67 61 53 48 43 40 24 22 15 13 14 11 7 14 17 28 52 41 17 61 45 33 5 27 17 14 12 16 10 9 15 8 15 11 8 3 9
64 64 68 66 59 59 58 56 60 59 55 64 56 46 42 34 18 8 8 17 12 11 10 13 15 10 38 46 31 28 57 36 19 14 14 20 16 12 11 19 15 19 7 10 7 8 3
69 69 66 63 69 70 65 62 54 53 57 53 55 46 43 41 32 31 21 3 15 7 21 11 13 17 14 23 29 24 40 35 28 13 6 20 18 19 24 17 18 6 6 12 8 7 3
70 72 72 71 66 67 72 65 63 57 55 54 54 50 49 44 26 18 20 10 5 14 4 13 14 13 23 13 17 20 27 27 23 16 23 8 10 8 12 10 6 10 12 7 8 5 11
73 76 75 73 73 67 64 72 64 58 54 52 54 52 52 50 33 26 12 5 18 18 23 7 10 12 19 16 21 18 16 29 27 14 11 20 17 20 7 16 19 13 17 11 11 5 11
76 81 80 81 78 72 63 63 69 59 53 52 48 51 56 55 39 24 16 15 25 14 26 8 6 9 11 16 15 21 37 31 26 26 34 17 16 6 14 10 21 11 9 12 9 1 4
83 83 84 80 77 79 66 60 59 59 49 47 51 51 55 52 43 27 5 49 15 13 10 48 17 12 20 14 18 33 29 33 26 18 11 13 5 10 14 10 1 18 13 4 4 4 8
86 85 75 74 76 73 71 60 55 55 48 41 41 22 28 60 50 32 16 28 43 25 9 30 45 13 14 16 19 17 14 19 42 19 24 12 12 8 13 14 18 6 6 9 9 9 10
88 91 82 77 71 60 55 57 51 52 43 40 42 9 26 70 16 14 31 16 16 46 18 5 5 16 15 14 19 23 25 25 38 29 27 16 13 13 16 6 9 14 20 18 10 9 6
87 88 84 73 60 51 48 53 42 44 38 46 17 14 34 80 21 25 29 22 24 19 11 5 5 7 9 13 8 10 11 14 29 34 25 17 7 7 9 6 2 9 9 10 10 8 14
91 96 84 70 57 45 28 36 36 38 44 52 13 9 17 43 31 28 32 35 14 47 23 2 5 9 3 9 3 8 4 7 5 12 41 40 13 21 30 10 11 9 9 12 14 9 11
99 96 76 60 54 33 22 27 33 37 42 50 17 5 4 9 18 22 12 6 41 15 22 5 5 7 6 9 8 8 4 4 9 7 9 14 16 12 10 19 21 26 16 23 19 17 16
91 83 66 66 46 22 18 23 30 31 36 49 14 5 4 6 36 29 15 7 31 41 5 22 8 5 10 7 7 7 5 5 5 14 8 1 8 16 15 18 25 22 32 30 33 6 4
80 72 67 58 41 21 14 21 32 28 42 18 18 21 12 1 8 18 23 26 9 4 3 11 9 4 9 3 13 19 24 19 7 2 3 1 9 8 10 11 14 33 31 26 15 10 18
82 67 60 48 41 33 23 18 30 34 42 37 7 5 4 6 6 10 14 32 26 9 3 6 12 10 3 18 13 9 9 13 15 9 16 3 8 5 7 11 16 9 16 33 38 22 14
68 68 58 41 40 30 30 11 16 26 34 37 31 11 3 5 11 12 5 26 37 39 14 5 14 4 9 11 5 2 5 1 14 13 12 16 10 5 10 7 7 2 10 17 17 22 28
65 74 53 40 31 26 14 5 3 15 20 28 22 18 7 4 7 15 14 6 6 7 5 8 23 18 9 2 3 12 11 11 11 10 11 11 6 9 6 13 20 13 13 13 10 13 20
59 66 67 35 30 29 22 3 7 11 23 22 21 23 6 3 12 15 6 1 8 7 6 3 5 5 26 5 4 6 14 5 13 23 13 9 5 24 4 7 11 11 17 30 16 15 24
60 62 59 50 37 21 15 6 3 9 17 34 22 17 15 6 11 11 8 2 5 6 6 5 3 4 0 10 8 8 8 19 12 13 18 15 14 10 4 6 16 15 14 23 16 20 24
58 56 58 50 48 18 11 10 4 9 21 21 9 23 21 14 8 14 18 15 12 5 5 4 2 3 5 6 6 6 6 3 22 26 5 21 14 14 18 12 8 55 39 59 41 32 30
Wind_Direction_850mb
288 287 286 283 280 280 280 281 283 283 284 285 286 286 287 288 287 287 286 284 286 290 294 295 293 294 288 264 246 236 225 358 219 208 221 228 230 226 229 234 167 191 261 300 247 193 204
292 292 289 287 286 284 280 279 278 277 279 280 283 286 289 289 287 285 285 285 287 288 287 287 287 287 272 256 271 253 253 261 273 215 220 225 232 243 262 232 174 227 219 64 159 194 206
302 296 294 293 287 281 280 281 283 283 283 281 279 279 281 283 285 285 285 286 290 289 285 282 281 279 261 252 252 276 276 253 254 241 221 232 233 191 228 280 278 81 120 38 251 166 232
297 299 299 297 293 289 287 284 281 282 281 280 280 282 280 279 279 281 282 284 289 287 283 281 278 271 250 274 259 251 249 225 234 232 230 238 242 242 260 272 56 96 53 101 278 157 245
284 290 292 293 292 293 295 291 286 283 286 286 285 285 282 280 281 281 282 285 291 290 286 279 265 239 263 258 247 248 243 241 227 227 225 224 217 234 260 201 31 11 225 208 310 204 131
306 287 286 285 285 287 289 292 293 286 282 283 284 283 284 284 283 285 285 288 292 290 279 239 214 228 250 244 267 260 217 226 229 237 206 207 184 176 73 105 214 236 236 231 243 243 185
308 303 300 298 285 278 283 286 287 292 292 289 288 287 286 286 286 288 293 305 283 224 233 210 215 218 210 108 230 241 224 194 173 169 156 168 143 206 203 203 190 199 203 249 268 243 182
312 306 303 298 295 292 279 277 281 280 286 291 300 312 296 291 290 294 296 309 85 336 294 255 247 252 245 262 301 259 210 166 169 165 114 84 221 187 201 175 181 166 230 268 275 278 162
308 309 312 306 299 293 288 287 276 278 278 280 286 294 303 294 291 290 273 235 236 325 266 263 242 240 240 244 238 253 212 186 140 152 169 187 184 166 171 200 175 203 175 233 241 315 240
297 295 297 299 302 299 292 285 284 280 272 276 280 286 296 303 288 269 241 207 224 290 293 270 205 245 210 213 235 242 230 196 149 189 170 209 197 174 169 196 168 253 217 230 268 39 272
322 314 298 290 290 290 291 290 288 281 280 265 271 274 286 299 253 257 194 194 175 160 289 247 200 222 200 176 159 212 215 207 166 177 142 213 158 177 173 213 165 232 141 196 228 209 108
325 319 316 308 288 287 289 284 286 278 276 275 263 265 269 277 275 250 242 170 155 74 243 269 192 177 120 198 186 167 176 197 208 162 245 203 207 167 198 214 175 170 107 49 56 96 57
332 329 323 315 303 287 276 281 283 278 274 270 260 257 258 265 268 241 231 191 126 206 215 217 202 162 178 163 197 165 171 181 182 162 204 170 187 195 151 151 88 94 71 339 338 8 225
326 326 320 314 311 298 284 269 276 276 273 268 262 253 247 253 258 234 196 99 218 216 203 292 165 148 181 153 208 187 156 188 211 160 163 184 226 170 178 169 183 180 155 157 230 228 260
327 320 313 310 302 299 290 276 266 272 270 266 258 252 245 236 241 222 184 198 223 175 196 227 118 141 200 192 158 179 214 205 187 185 203 174 227 136 165 155 147 178 153 197 136 161 60
331 326 317 310 301 292 283 279 265 261 267 258 252 253 240 225 218 192 143 224 222 199 152 202 197 169 187 185 174 190 181 210 206 172 141 196 175 206 198 103 30 168 161 111 17 197 231
336 329 325 317 308 290 274 272 260 252 256 251 237 238 239 223 193 174 211 226 221 277 296 185 219 193 214 178 180 193 225 218 191 171 174 135 136 268 106 177 167 124 163 58 124 149 187
341 341 327 323 316 299 268 261 253 244 244 243 233 218 206 197 183 196 228 212 296 221 255 272 202 198 194 184 183 199 205 198 185 162 172 184 152 193 200 195 174 206 187 168 161 231 213
339 335 334 326 316 306 271 254 245 237 229 232 227 211 200 193 200 214 230 243 263 253 271 297 270 210 191 192 188 174 169 216 174 176 155 169 196 158 324 6 313 172 179 150 120 95 190
339 337 332 328 325 313 271 243 236 232 225 220 177 189 159 219 214 211 219 234 261 241 276 66 316 306 134 160 230 148 142 71 108 157 181 163 159 191 221 203 160 186 181 184 155 137 184
345 341 336 332 327 307 277 244 228 222 225 213 206 242 206 176 206 215 179 249 218 250 225 143 235 261 189 161 98 124 200 13 99 234 118 144 205 182 192 196 191 211 193 181 190 191 169
350 354 351 344 338 310 268 240 224 229 221 209 185 158 190 279 220 218 224 207 237 218 276 222 251 167 26 56 53 104 61 82 89 19 99 33 216 176 214 200 193 214 216 194 207 124 94
352 351 353 353 358 339 310 251 223 223 206 192 226 236 325 106 241 207 212 214 238 226 357 181 121 6 59 218 286 279 264 267 247 44 0 317 138 106 220 185 132 244 208 190 198 187 161
357 350 355 353 353 353 312 266 222 218 214 209 120 128 187 268 214 226 216 202 234 173 229 42 176 141 351 329 315 290 280 253 278 246 183 205 112 101 156 114 207 270 210 185 198 200 192
354 355 356 351 349 360 12 44 182 201 211 219 230 222 88 284 278 200 274 201 205 224 215 224 280 321 338 327 43 345 24 203 255 260 219 181 134 149 148 209 292 232 148 144 158 226 198
356 1 355 360 356 356 1 33 222 210 209 216 228 243 239 244 264 305 151 145 138 145 132 212 246 242 274 199 131 188 193 184 172 199 57 137 190 156 168 176 217 201 202 150 79 249 199
352 359 4 354 345 346 1 272 278 224 201 209 214 209 261 252 297 11 61 139 160 127 151 235 292 194 203 182 127 186 221 208 201 171 170 144 115 206 166 217 275 249 146 138 147 232 185
359 2 6 6 354 348 352 348 236 215 205 201 225 228 230 283 266 300 276 236 117 103 138 179 46 263 90 179 178 223 218 211 260 215 173 161 150 186 117 170 240 168 128 158 199 221 219
359 2 8 5 9 3 18 43 7 272 189 200 206 208 234 269 292 249 240 236 250 197 207 207 212 220 229 177 200 185 290 285 201 236 228 193 183 185 189 203 223 171 173 198 187 198 199